Location: Nurachi
(39.9739°N, 8.5389°E)
Time: 13:09:32
(UTC+00:00)

Daily predictions for brighter satellites

Satellite Brightness Start Highest point End
(mag) Time Altitude Azimuth Time Altitude Azimuth Time Altitude Azimuth
Resurs 01 Rocket 2.3 19:24:56 10° SE 19:29:03 39° ENE 19:33:13 10° N
Cosmos 1455 Rocket 3.2 19:24:48 10° N 19:29:04 57° E 19:33:18 10° SSE
CZ-4B R/B 2.3 19:29:49 10° NE 19:32:11 23° E 19:34:33 10° SSE
Cosmos 1140 Rocket 4.2 19:27:34 10° NNW 19:32:37 56° WSW 19:37:37 10° S
Okean 1 Rocket 4.5 19:28:58 10° NNW 19:33:08 40° W 19:37:15 10° SSW
Cosmos 1624 Rocket 4.4 19:28:56 10° SSW 19:34:08 72° WNW 19:39:22 10° NNE
Cosmos 407 Rocket 4.1 19:29:10 10° NNW 19:34:13 58° WSW 19:39:13 10° S
Cosmos 1190 Rocket 4.1 19:31:07 10° NNW 19:36:27 86° WSW 19:41:44 10° SSE
Lacrosse 5 2.0 19:32:38 10° NW 19:37:45 70° NE 19:42:49 10° SE
NOSS 2-1 (C) 4.5 19:36:57 10° NNW 19:41:40 58° NE 19:48:16 10° SE
Meteor 1-24 Rocket 3.6 19:37:55 10° S 19:43:13 77° E 19:48:41 10° NNE
Okean-O 4.0 19:39:57 10° SSW 19:44:03 38° W 19:48:12 10° NNW
IGS 5A 4.2 19:40:31 10° S 19:44:33 53° W 19:48:37 10° NNW
Cosmos 2082 Rocket 4.0 19:45:41 10° ESE 19:48:01 13° E 19:50:21 10° ENE
H-2A R/B 3.4 19:44:37 10° S 19:48:15 43° W 19:51:55 10° NNW
Cosmos 1271 Rocket 3.2 19:46:27 10° N 19:50:17 46° ENE 19:53:48 11° SSE
NOSS 2-1 (D) 4.3 19:47:19 10° NNW 19:52:09 69° NE 19:58:29 12° SE
Cosmos 1536 Rocket 4.2 19:51:37 10° SSE 19:55:34 37° E 19:59:34 10° NNE
H-2A R/B 2.3 19:52:33 10° N 19:57:01 81° WNW 20:01:30 10° SSW
Cosmos 1455 2.3 19:55:54 10° N 19:59:41 56° E 20:02:58 13° SSE
CARTOSAT-1 4.2 19:56:44 13° SE 20:00:11 40° ENE 20:04:13 10° N
Cosmos 1975 Rocket 4.2 19:57:21 10° SSW 20:01:38 46° W 20:05:54 10° N
Cosmos 1709 Rocket 4.2 19:55:56 10° N 20:02:09 76° W 20:08:26 10° S
SL-24 R/B 4.4 19:58:52 12° SSE 20:02:42 56° ENE 20:07:27 10° N
Cosmos 676 Rocket 4.1 19:59:53 10° NNW 20:05:12 80° WSW 20:10:18 11° SSE
Cosmos 2315 Rocket 4.4 19:59:56 10° SSW 20:06:14 70° W 20:12:30 10° N
ATLAS 5 CENTAUR R/B 2.9 19:56:13 10° NW 20:07:25 79° WSW 20:10:22 16° SSE
Tiangong 2.1 20:05:11 10° W 20:08:04 33° SSW 20:09:44 19° SSE
SPOT 3 Rocket 4.0 20:05:32 15° SE 20:09:38 47° ENE 20:14:38 10° N
Ariane Rocket 3.0 20:06:24 12° SSE 20:11:11 78° ENE 20:16:17 10° N
SOZ 4.5 20:09:26 10° WNW 20:11:34 55° SW 20:12:51 23° SSE
Cosmos 2074 Rocket 4.3 20:08:56 10° N 20:14:59 49° ENE 20:19:38 17° SSE
GEOS 3 Rocket 3.7 20:17:17 17° SSE 20:21:18 74° SW 20:26:26 10° NW
Cosmos 1544 Rocket 3.7 20:17:17 10° NNW 20:21:37 73° W 20:25:32 13° S
Lacrosse 5 rocket 3.2 20:19:57 10° WNW 20:22:53 20° SW 20:25:52 10° S
Nadezhda 1 Rocket 4.4 20:18:42 16° SSE 20:23:03 41° E 20:28:40 10° NNE
Cosmos 1656 3.6 20:18:47 10° NNW 20:24:18 80° ENE 20:28:15 20° SSE
MetOp-B 4.1 20:23:57 15° SSE 20:28:26 87° WSW 20:33:50 10° NNW
ATLAS 2AS CENTAUR R/B 3.1 20:24:00 10° NW 20:30:48 58° WSW 20:35:56 17° S
Cosmos 1850 Rocket 4.0 20:28:00 10° NNW 20:33:12 69° ENE 20:36:20 24° SSE
Cosmos 1980 Rocket 3.6 20:31:11 10° N 20:35:50 25° NE 20:39:07 15° E
Cosmos 1331 Rocket 3.9 20:30:47 10° S 20:36:03 74° ESE 20:41:21 10° NNE
Cosmos 1697 Rocket 3.2 20:30:56 10° NNW 20:36:22 47° ENE 20:39:32 23° SE
SL-8 R/B 4.2 20:33:18 10° NW 20:38:02 56° NNE 20:41:22 19° E
SPOT 1/Viking Rocket 4.4 20:33:58 10° S 20:38:54 47° W 20:43:53 10° NNW
COSMOS 2406 3.3 20:36:03 11° S 20:41:21 55° ESE 20:46:58 10° NNE
Spot 2 Rocket 3.6 20:38:47 25° SE 20:41:41 61° ENE 20:46:43 10° N
X-37B 1.6 20:43:12 10° WNW 20:45:51 36° NNE 20:47:01 24° ENE
ATLAS 5 CENTAUR R/B 3.5 20:48:00 11° ENE 20:48:00 11° ENE 20:48:22 10° ENE
Cosmos 2154 Rocket 4.1 20:40:28 10° N 20:46:38 61° E 20:50:10 26° SSE
CZ-2C R/B 3.7 20:45:32 10° NNE 20:50:00 56° E 20:51:58 31° SSE
SPOT 5 2.5 20:49:45 32° SSE 20:51:44 74° ENE 20:56:03 10° N
Cosmos 1703 3.8 20:51:13 15° SSW 20:54:12 54° W 20:58:00 10° N
Cosmos 1833 Rocket 3.1 20:51:58 10° SW 20:57:31 63° WNW 21:03:07 10° NNE
Terra 2.0 20:56:28 34° SE 20:58:22 59° ENE 21:03:04 10° N
Cosmos 2084 Rocket 4.3 20:55:03 10° NNW 20:58:41 35° NE 21:00:03 27° E
RESURS DK-1 2.5 20:55:45 10° NNW 20:59:51 66° WSW 21:01:19 37° S
Delta 2 Rocket 3.7 20:57:30 10° WSW 20:59:57 34° SSW 20:59:57 34° SSW
Helios 1A Rocket 2.8 21:01:06 40° SSE 21:02:31 90° WSW 21:06:39 10° NNW
CZ-4B R/B 4.3 21:02:19 10° NW 21:03:27 12° WNW 21:04:35 10° W
ERS-1 Rocket 2.9 21:02:33 33° SSE 21:04:53 87° E 21:09:57 10° NNW
Cosmos 1892 Rocket 3.8 21:04:14 41° SE 21:05:12 49° E 21:09:25 10° NNE
ASTEX 1 4.3 21:01:07 10° NNE 21:05:32 31° E 21:06:20 29° ESE
Resurs 01 Rocket 4.0 21:02:38 10° SW 21:05:41 18° W 21:08:45 10° NW
Cosmos 1302 Rocket 3.9 21:03:52 29° S 21:06:29 66° ESE 21:11:38 10° NNE
Cosmos 2228 3.3 21:09:30 10° NNW 21:13:40 60° W 21:15:15 35° SSW
Cosmos 1825 4.1 21:15:03 17° ENE 21:15:03 17° ENE 21:16:50 10° NE
Cosmos 2058 Rocket 3.9 21:10:36 10° N 21:14:42 36° ENE 21:15:19 34° E
Cosmos 1408 3.1 21:16:15 40° ENE 21:16:15 40° ENE 21:19:02 10° NNE
Meteor 1-11 4.3 21:15:39 38° SSE 21:17:37 58° E 21:23:05 10° NNE
Lacrosse 5 3.8 21:16:46 10° WNW 21:20:13 18° WSW 21:22:05 15° SW
Cosmos 1328 4.1 21:22:05 38° SW 21:23:27 62° W 21:27:25 10° N
Cosmos 968 Rocket 3.7 21:20:00 10° NNW 21:25:09 60° ENE 21:26:36 43° SE
Cosmos 1900 4.4 21:20:09 10° NNW 21:25:18 76° WSW 21:26:45 47° SSE
Cosmos 2082 Rocket 2.2 21:27:22 21° SSW 21:31:16 82° WNW 21:37:01 10° NNE
ASTRO F (AKARI) 4.4 21:32:26 83° N 21:32:26 83° N 21:35:51 10° NNW
Cosmos 2360 4.5 21:28:10 10° NNW 21:33:48 60° WSW 21:35:50 38° S
Cosmos 1867 3.9 21:29:27 10° NNW 21:34:49 55° NE 21:36:30 39° ESE
ARIANE 5 R/B 2.6 21:35:43 56° S 21:36:35 75° WSW 21:41:01 10° NNW
USA 267 3.1 21:31:47 10° NE 21:38:19 68° SE 21:44:49 10° SW
Cosmos 1606 Rocket 4.3 21:38:13 10° NNW 21:42:21 45° W 21:43:23 37° SW
GP-B 3.0 21:38:55 10° N 21:43:20 67° E 21:43:34 65° ESE
Cosmos 2341 Rocket 3.9 21:38:39 10° N 21:45:00 81° E 21:47:01 46° SSE
SAR-Lupe-4 3.9 21:43:47 10° NNE 21:46:46 59° NNE 21:46:46 59° NNE
CSL-04 DEB 4.5 21:49:37 10° NNE 21:53:59 83° WNW 21:54:21 74° SW
Okean 1-7 Rocket 3.5 21:58:40 75° E 21:58:40 75° E 22:03:07 10° N
Cosmos 1892 3.3 22:02:06 49° WNW 22:02:06 49° WNW 22:05:41 10° N
Cosmos 2181 Rocket 3.9 22:07:21 47° SSW 22:09:15 81° W 22:15:30 10° N
Cosmos 1633 4.2 22:12:09 26° NE 22:12:09 26° NE 22:13:57 10° NNE
USA 234 4.5 22:04:47 10° E 22:10:39 37° NNE 22:16:32 10° NW
Cosmos 1992 Rocket 4.2 22:15:18 48° SW 22:16:35 66° WNW 22:21:49 10° NNE
Cosmos 1697 Rocket 4.2 22:15:40 10° NW 22:19:57 23° W 22:21:16 21° WSW
Cosmos 1980 Rocket 2.6 22:14:37 10° NW 22:20:04 48° WSW 22:20:52 45° SW
SL-16 R/B 2.9 22:14:47 10° N 22:20:12 44° ENE 22:21:23 39° E
Cosmos 1821 Rocket 4.3 22:14:17 10° N 22:20:19 50° ENE 22:21:23 45° ESE
Cosmos 1486 Rocket 3.8 22:15:28 10° NNW 22:20:42 82° ENE 22:21:05 76° SE
Cosmos 1812 Rocket 4.1 22:18:12 10° N 22:22:08 51° ENE 22:22:08 51° ENE
Cosmos 2369 4.5 22:18:20 10° NW 22:23:38 40° WSW 22:24:30 37° SW
ATLAS 5 CENTAUR R/B 2.6 22:29:23 31° WNW 22:30:01 33° NW 22:33:43 10° NNE
Cosmos 1602 Rocket 3.8 22:32:11 67° N 22:32:11 67° N 22:35:58 10° N
Cosmos-2242 3.7 22:27:44 10° N 22:31:12 46° NE 22:31:12 46° NE
Cosmos 1869 4.2 22:32:09 10° NNW 22:35:09 43° NW 22:35:09 43° NW
Terra 4.1 22:35:21 13° WSW 22:36:29 14° W 22:38:54 10° WNW
Nadezhda 3 Rocket 3.9 22:36:22 60° SE 22:37:06 66° E 22:43:11 10° NNE
ALOS 2 3.1 22:39:48 52° NE 22:39:48 52° NE 22:43:39 10° N
ERS-2 4.5 22:36:34 10° NE 22:37:40 17° NE 22:37:40 17° NE
ADEOS Rocket 3.5 22:45:43 50° SE 22:47:45 73° ENE 22:55:27 10° N
Cosmos 1354 Rocket 4.0 22:43:40 10° NNW 22:48:58 70° ENE 22:49:06 70° E
Cosmos 1825 4.1 22:49:40 23° WNW 22:49:40 23° WNW 22:52:24 10° NNW
Cosmos 2322 Rocket 2.4 22:50:06 10° NNW 22:55:45 61° ENE 22:56:24 57° E
Cosmos 1503 Rocket 3.9 22:53:26 10° NNW 22:58:35 77° W 22:58:35 77° W
Cosmos 1777 Rocket 4.1 23:01:31 10° NNW 23:06:47 65° ENE 23:06:53 65° ENE
Cosmos 1825 Rocket 4.1 23:08:18 56° N 23:08:18 56° N 23:11:46 10° N
CENTAUR R/B 4.0 23:09:34 19° E 23:09:34 19° E 23:13:06 10° ENE
Gbstr 26 Del rocket 3.6 23:11:08 58° NNE 23:11:08 58° NNE 23:15:25 10° NE
Cosmos 2333 Rocket 3.6 23:05:44 10° N 23:10:53 32° ENE 23:12:51 26° E
Cosmos 1340 Rocket 4.0 23:13:04 38° NNE 23:13:04 38° NNE 23:15:38 10° NNE
SJ 16-02 1.9 23:08:48 10° NNW 23:12:19 55° NNW 23:12:19 55° NNW
USA 267 4.4 23:15:04 10° NE 23:21:03 40° NNW 23:27:02 10° W
Cosmos 2058 3.9 23:26:08 43° NW 23:26:08 43° NW 23:29:21 10° N
Cosmos 2221 3.4 23:24:46 10° N 23:28:17 46° NE 23:28:17 46° NE
Cosmos 1606 4.4 23:26:01 10° NNW 23:28:16 29° NW 23:28:16 29° NW
Cosmos 2360 Rocket 2.1 23:25:56 10° NNW 23:31:38 76° ENE 23:32:00 73° ESE
Cosmos 1934 Rocket 3.8 23:26:22 10° N 23:32:30 87° W 23:33:06 75° S
Nimbus 7 Rocket 4.2 23:30:04 10° NNE 23:36:03 87° ESE 23:36:36 75° S
Resurs 1-4 Rocket 4.4 23:35:22 10° ENE 23:37:24 12° E 23:38:01 12° E
Cosmos 1833 4.1 23:39:57 71° W 23:40:17 74° WNW 23:45:54 10° NNE
Cosmos 44 3.6 23:41:21 59° NNW 23:41:21 59° NNW 23:45:19 10° NNE
Meteor 2-2 Rocket 4.4 23:38:17 10° NNW 23:44:14 63° W 23:44:36 62° WSW
CZ-2D R/B 4.2 23:43:26 10° ENE 23:46:05 14° E 23:46:39 14° E
Cosmos 1727 Rocket 4.3 23:51:12 49° ESE 23:52:09 54° E 23:58:16 10° NNE
USA 234 3.1 23:52:00 60° SSE 23:53:17 78° SW 23:59:52 10° NW
